| time (UTC) | temp F | wind direction | speed knots | gust knots | rain 1hr in | rain 24hr in | rain mn in | humidity % | barometer mb |
| 20260509070041 | 46 | 169 | 2.6 | 5.2 | 0.00 | 0.00 | 0.00 | 90 | 1004.4 |
| 20260509064532 | 46 | 178 | 2.6 | 7.0 | 0.00 | 0.00 | 0.00 | 89 | 1004.6 |
| 20260509063053 | 46 | 173 | 3.5 | 6.1 | 0.00 | 0.00 | 0.00 | 89 | 1004.7 |
| 20260509061541 | 46 | 166 | 2.6 | 7.0 | 0.00 | 0.00 | 0.00 | 89 | 1004.9 |
| 20260509060033 | 47 | 201 | 2.6 | 5.2 | 0.00 | 0.00 | 0.00 | 89 | 1005.2 |
| 20260509054521 | 47 | 176 | 2.6 | 7.0 | 0.00 | 0.00 | 0.00 | 88 | 1005.4 |
| 20260509053022 | 47 | 157 | 4.3 | 7.8 | 0.00 | 0.00 | 0.00 | 88 | 1005.6 |
| 20260509051519 | 47 | 179 | 4.3 | 7.0 | 0.00 | 0.00 | 0.00 | 88 | 1005.7 |
| 20260509050018 | 46 | 165 | 3.5 | 6.1 | 0.00 | 0.00 | 0.00 | 88 | 1005.7 |
| 20260509044518 | 46 | 154 | 2.6 | 5.2 | 0.00 | 0.00 | 0.00 | 87 | 1005.8 |
| 20260509043013 | 46 | 138 | 2.6 | 6.1 | 0.00 | 0.00 | 0.00 | 84 | 1005.9 |
| 20260509041510 | 47 | 132 | 1.7 | 6.1 | 0.00 | 0.00 | 0.00 | 83 | 1005.9 |
| 20260509040006 | 48 | 178 | 3.5 | 7.8 | 0.00 | 0.00 | 0.00 | 82 | 1006.0 |
| 20260509034505 | 48 | 162 | 3.5 | 7.0 | 0.00 | 0.00 | 0.00 | 79 | 1006.0 |
| 20260509033004 | 48 | 167 | 5.2 | 7.8 | 0.00 | 0.00 | 0.00 | 75 | 1006.0 |
| 20260509031503 | 48 | 174 | 3.5 | 6.1 | 0.00 | 0.00 | 0.00 | 72 | 1006.3 |
| 20260509030002 | 49 | 172 | 4.3 | 6.1 | 0.00 | 0.00 | 0.00 | 70 | 1006.5 |
| 20260509024500 | 47 | 159 | 2.6 | 4.3 | 0.00 | 0.00 | 0.00 | 67 | 1006.5 |
| 20260509023107 | 47 | 170 | 1.7 | 3.5 | 0.00 | 0.00 | 0.00 | 67 | 1006.6 |
| 20260509021600 | 47 | 145 | 2.6 | 4.3 | 0.00 | 0.00 | 0.00 | 66 | 1006.7 |
| 20260509014559 | 49 | 138 | 1.7 | 5.2 | 0.00 | 0.00 | 0.00 | 62 | 1006.7 |
| 20260509013100 | 49 | 120 | 3.5 | 6.1 | 0.00 | 0.00 | 0.00 | 60 | 1006.6 |
| 20260509011558 | 50 | 137 | 1.7 | 4.3 | 0.00 | 0.00 | 0.00 | 58 | 1006.6 |
| 20260509010056 | 50 | 128 | 3.5 | 6.1 | 0.00 | 0.00 | 0.00 | 56 | 1006.6 |
| 20260509004606 | 51 | 146 | 3.5 | 7.8 | 0.00 | 0.00 | 0.00 | 52 | 1006.4 |
| 20260509003056 | 52 | 132 | 4.3 | 7.0 | 0.00 | 0.00 | 0.00 | 51 | 1006.4 |
| 20260509001555 | 54 | 102 | 4.3 | 6.1 | 0.00 | 0.00 | 0.00 | 49 | 1006.4 |
| 20260509000055 | 57 | 157 | 0.0 | 2.6 | 0.00 | 0.00 | 0.00 | 43 | 1006.2 |
| 20260508234555 | 58 | 227 | 1.7 | 6.1 | 0.00 | 0.00 | 0.00 | 38 | 1006.3 |
| 20260508233053 | 59 | 257 | 1.7 | 8.7 | 0.00 | 0.00 | 0.00 | 35 | 1006.4 |
| 20260508231552 | 60 | 223 | 4.3 | 8.7 | 0.00 | 0.00 | 0.00 | 34 | 1006.4 |
| 20260508230052 | 61 | 237 | 2.6 | 6.1 | 0.00 | 0.00 | 0.00 | 34 | 1006.4 |
| 20260508224552 | 61 | 222 | 5.2 | 13.0 | 0.00 | 0.00 | 0.00 | 34 | 1006.5 |
| 20260508223050 | 61 | 253 | 3.5 | 8.7 | 0.00 | 0.00 | 0.00 | 34 | 1006.6 |
| 20260508221556 | 62 | 229 | 2.6 | 7.8 | 0.00 | 0.00 | 0.00 | 33 | 1006.5 |
| 20260508220048 | 61 | 246 | 2.6 | 7.8 | 0.00 | 0.00 | 0.00 | 33 | 1006.6 |
| 20260508214547 | 62 | 237 | 3.5 | 10.4 | 0.00 | 0.00 | 0.00 | 33 | 1006.5 |
| 20260508213045 | 62 | 204 | 4.3 | 12.2 | 0.00 | 0.00 | 0.00 | 33 | 1006.6 |
| 20260508211544 | 61 | 244 | 4.3 | 8.7 | 0.00 | 0.00 | 0.00 | 32 | 1006.6 |
| 20260508210043 | 62 | 259 | 4.3 | 8.7 | 0.00 | 0.00 | 0.00 | 33 | 1006.9 |
| 20260508204541 | 62 | 229 | 4.3 | 9.6 | 0.00 | 0.00 | 0.00 | 32 | 1007.0 |
| 20260508203042 | 62 | 234 | 1.7 | 7.0 | 0.00 | 0.00 | 0.00 | 35 | 1007.1 |
| 20260508201546 | 62 | 237 | 6.1 | 9.6 | 0.00 | 0.00 | 0.00 | 33 | 1007.3 |
| 20260508200036 | 62 | 167 | 4.3 | 11.3 | 0.00 | 0.00 | 0.00 | 33 | 1007.5 |
| 20260508194533 | 60 | 302 | 1.7 | 9.6 | 0.00 | 0.00 | 0.00 | 35 | 1007.8 |
| 20260508193031 | 60 | 208 | 4.3 | 12.2 | 0.00 | 0.00 | 0.00 | 33 | 1008.1 |
| 20260508191535 | 60 | 221 | 2.6 | 11.3 | 0.00 | 0.00 | 0.00 | 40 | 1008.3 |
| 20260508190034 | 59 | 207 | 2.6 | 7.8 | 0.00 | 0.00 | 0.00 | 36 | 1008.4 |
| 20260508184528 | 59 | 216 | 1.7 | 10.4 | 0.00 | 0.00 | 0.00 | 36 | 1008.6 |
| 20260508183023 | 59 | 240 | 5.2 | 8.7 | 0.00 | 0.00 | 0.00 | 38 | 1008.9 |
| 20260508181531 | 60 | 221 | 6.1 | 10.4 | 0.00 | 0.00 | 0.00 | 38 | 1009.0 |
| 20260508180019 | 58 | 258 | 4.3 | 10.4 | 0.00 | 0.00 | 0.00 | 39 | 1009.1 |
| 20260508174517 | 59 | 208 | 5.2 | 9.6 | 0.00 | 0.00 | 0.00 | 41 | 1009.4 |
| 20260508173018 | 59 | 247 | 5.2 | 9.6 | 0.00 | 0.00 | 0.00 | 35 | 1009.7 |
| 20260508171521 | 58 | 271 | 5.2 | 11.3 | 0.00 | 0.00 | 0.00 | 42 | 1009.9 |
| 20260508170012 | 57 | 190 | 2.6 | 13.9 | 0.00 | 0.00 | 0.00 | 41 | 1010.2 |
| 20260508164507 | 57 | 157 | 1.7 | 9.6 | 0.00 | 0.00 | 0.00 | 42 | 1010.2 |
| 20260508163005 | 57 | 305 | 3.5 | 11.3 | 0.00 | 0.00 | 0.00 | 38 | 1010.4 |
| 20260508161502 | 56 | 268 | 4.3 | 9.6 | 0.00 | 0.00 | 0.00 | 44 | 1010.6 |
| 20260508160058 | 56 | 208 | 5.2 | 8.7 | 0.00 | 0.00 | 0.00 | 44 | 1010.7 |
| 20260508154603 | 55 | 192 | 1.7 | 7.8 | 0.00 | 0.00 | 0.00 | 44 | 1010.8 |
| 20260508153055 | 55 | 228 | 2.6 | 7.8 | 0.00 | 0.00 | 0.00 | 44 | 1010.8 |
| 20260508151548 | 54 | 254 | 2.6 | 7.8 | 0.00 | 0.00 | 0.00 | 48 | 1010.9 |
| 20260508150046 | 54 | 252 | 4.3 | 7.0 | 0.00 | 0.00 | 0.00 | 50 | 1011.1 |
| 20260508144544 | 53 | 213 | 5.2 | 8.7 | 0.00 | 0.00 | 0.00 | 51 | 1011.1 |
| 20260508143037 | 52 | 282 | 3.5 | 8.7 | 0.00 | 0.00 | 0.00 | 53 | 1011.2 |
| 20260508141601 | 51 | 227 | 4.3 | 7.8 | 0.00 | 0.00 | 0.00 | 55 | 1011.4 |
| 20260508140029 | 50 | 229 | 2.6 | 8.7 | 0.00 | 0.00 | 0.00 | 60 | 1011.4 |
| 20260508134528 | 49 | 153 | 2.6 | 7.0 | 0.00 | 0.00 | 0.00 | 61 | 1011.2 |
| 20260508133020 | 48 | 221 | 3.5 | 6.1 | 0.00 | 0.00 | 0.00 | 64 | 1011.3 |
| 20260508131516 | 47 | 197 | 2.6 | 6.1 | 0.00 | 0.00 | 0.00 | 66 | 1011.4 |
| 20260508130011 | 46 | 223 | 1.7 | 6.1 | 0.00 | 0.00 | 0.00 | 71 | 1011.5 |
| 20260508124507 | 44 | 234 | 2.6 | 5.2 | 0.00 | 0.00 | 0.00 | 74 | 1011.4 |
| 20260508123004 | 43 | 242 | 2.6 | 5.2 | 0.00 | 0.00 | 0.00 | 76 | 1011.3 |
| 20260508121603 | 42 | 257 | 1.7 | 6.1 | 0.00 | 0.00 | 0.00 | 77 | 1011.1 |
| 20260508120055 | 41 | 240 | 1.7 | 3.5 | 0.00 | 0.00 | 0.00 | 79 | 1011.0 |
| 20260508114551 | 40 | 222 | 0.9 | 3.5 | 0.00 | 0.00 | 0.00 | 83 | 1010.9 |
| 20260508113104 | 39 | 222 | 0.0 | 0.0 | 0.00 | 0.00 | 0.00 | 85 | 1010.9 |
| 20260508111548 | 38 | 222 | 0.0 | 0.0 | 0.00 | 0.00 | 0.00 | 86 | 1010.9 |
| 20260508110042 | 37 | 222 | 0.0 | 0.0 | 0.00 | 0.00 | 0.00 | 87 | 1011.0 |
| 20260508104540 | 36 | 222 | 0.0 | 0.0 | 0.00 | 0.00 | 0.00 | 87 | 1011.0 |
| 20260508103039 | 36 | 222 | 0.0 | 0.0 | 0.00 | 0.00 | 0.00 | 87 | 1010.8 |
| 20260508101537 | 35 | 222 | 0.0 | 0.0 | 0.00 | 0.00 | 0.00 | 87 | 1010.8 |
| 20260508100035 | 35 | 222 | 0.0 | 0.0 | 0.00 | 0.00 | 0.00 | 86 | 1010.8 |
| 20260508094532 | 36 | 222 | 0.0 | 0.0 | 0.00 | 0.00 | 0.00 | 85 | 1010.8 |
| 20260508093032 | 36 | 222 | 0.0 | 0.9 | 0.00 | 0.00 | 0.00 | 84 | 1010.8 |
| 20260508091536 | 36 | 261 | 0.0 | 0.0 | 0.00 | 0.00 | 0.00 | 84 | 1010.8 |
| 20260508090037 | 36 | 261 | 0.0 | 0.0 | 0.00 | 0.00 | 0.00 | 84 | 1010.7 |
| 20260508084527 | 37 | 261 | 0.0 | 0.0 | 0.00 | 0.00 | 0.00 | 83 | 1010.7 |
| 20260508083024 | 37 | 261 | 0.0 | 0.0 | 0.00 | 0.00 | 0.00 | 82 | 1010.8 |
| 20260508081521 | 38 | 261 | 0.0 | 0.0 | 0.00 | 0.00 | 0.00 | 80 | 1010.9 |
| 20260508080030 | 39 | 261 | 0.0 | 0.0 | 0.00 | 0.00 | 0.00 | 79 | 1010.9 |
| 20260508074526 | 40 | 261 | 0.0 | 0.0 | 0.00 | 0.00 | 0.00 | 79 | 1010.8 |
| 20260508073015 | 41 | 261 | 0.0 | 3.5 | 0.00 | 0.00 | 0.00 | 79 | 1010.8 |
| 20260508071614 | 40 | 240 | 2.6 | 4.3 | 0.00 | 0.00 | 0.00 | 79 | 1010.7 |